Simultaneous Nadir Overpasses (SNOs) Predictions

Prediction of SNOs between NOAA-19 and NPP Satellite Orbit:

Table of predicted SNOs for the next 14.0 days since TLE Epoch: 5/15/2016
Index Date (NOAA-19) Time (NOAA-19) Lat,Lon (NOAA-19) SZA (NOAA-19 ) Date (NPP) Time (NPP) Lat,Lon (NPP) SZA (NPP ) Distance(km) Time Diff (sec)
1 05/24/2016 07:08:22 81.00, 19.52 63.84 05/24/2016 07:09:34 81.00, 19.71 63.78 3.20 72
2 05/24/2016 07:59:24 -81.00,-172.94 116.21 05/24/2016 08:00:19 -81.00,-173.08 116.22 2.55 55
3 05/24/2016 08:50:23 81.00, -5.57 63.77 05/24/2016 08:51:04 81.00, -5.71 63.77 2.29 41
4 05/24/2016 09:41:26 -81.00, 161.58 116.23 05/24/2016 09:41:49 -81.01, 161.51 116.23 1.44 23
5 05/24/2016 10:32:25 81.00, -31.05 63.76 05/24/2016 10:32:34 81.00, -31.12 63.76 1.23 9
6 05/24/2016
